Weather History for Madisonville, KY

Change the Weather History Date:

Tuesday, October 8, 2013

  Actual Average (KOWB) Record (KOWB)
Temperature  
Mean Temperature 58 °F -  
Max Temperature 72 °F 73 °F 90 °F (2007)
Min Temperature 44 °F 48 °F 30 °F (1987)
Degree Days  
Heating Degree Days 7    
Growing Degree Days 8 (Base 50)    
Moisture  
Dew Point 48 °F    
Average Humidity 81    
Maximum Humidity 100    
Minimum Humidity 36    
Precipitation  
Precipitation 0.00 in - - ()
Sea Level Pressure  
Sea Level Pressure 30.18 in    
Wind  
Wind Speed 3 mph (East)    
Max Wind Speed 14 mph    
Max Gust Speed 20 mph    
Visibility 8 miles    
Events Fog    
Averages and records for this station are not official NWS values.
T = Trace of Precipitation, MM = Missing Value Source: NWS Daily Summary

Daily Weather History Graph

Daily Weather History Graph

Search for Another Location

Airport:

Trip Planner

Search our weather history database for the weather conditions in past years. The results will help you decide how hot, cold, wet, or windy it might be!

Date:

Astronomy

Oct. 08, 2013 Rise Set
Actual Time 6:51 AM CDT 6:22 PM CDT
Civil Twilight 6:25 AM CDT 6:48 PM CDT
Nautical Twilight 5:55 AM CDT 7:18 PM CDT
Astronomical Twilight 5:24 AM CDT 7:48 PM CDT
Moon 10:40 AM CDT (10/8) 9:03 PM CDT (10/8)
Length of Visible Light 12h 22m
Length of Day
11h 30m
Waxing Crescent, 16% of the Moon is Illuminated
Oct 8
Waxing Crescent
Oct 11
First Quarter
Oct 18
Full
Oct 26
Last Quarter
Nov 3
New

Hourly Weather History & Observations

Time (CDT) Temp. Dew Point Humidity Pressure Visibility Wind Dir Wind Speed Gust Speed Precip Events Conditions
12:15 AM 48.9 °F 48.9 °F 100% 30.15 in 7.0 mi Calm Calm - N/A   Clear
12:35 AM 49.6 °F 49.6 °F 100% 30.15 in 10.0 mi Calm Calm - N/A   Clear
12:55 AM 48.7 °F 48.7 °F 100% 30.15 in 10.0 mi Calm Calm - N/A   Clear
1:15 AM 48.6 °F 48.6 °F 100% 30.15 in 10.0 mi Calm Calm - N/A   Clear
1:35 AM 48.0 °F 48.0 °F 100% 30.16 in 10.0 mi Calm Calm - N/A   Clear
1:55 AM 47.8 °F 47.8 °F 100% 30.16 in 10.0 mi Calm Calm - N/A   Clear
2:15 AM 48.2 °F 48.2 °F 100% 30.17 in 2.5 mi Calm Calm - N/A   Clear
2:35 AM 48.0 °F 48.0 °F 100% 30.16 in 1.0 mi Calm Calm - N/A   Mist
2:55 AM 46.8 °F 46.8 °F 100% 30.17 in 0.5 mi Calm Calm - N/A Fog Fog
3:15 AM 46.4 °F 46.4 °F 100% 30.16 in 1.5 mi Calm Calm - N/A   Scattered Clouds
3:35 AM 45.7 °F 45.7 °F 100% 30.16 in 0.8 mi Calm Calm - N/A   Mist
3:55 AM 46.6 °F 46.6 °F 100% 30.17 in 1.2 mi Calm Calm - N/A   Mist
4:15 AM 46.6 °F 46.6 °F 100% 30.17 in 10.0 mi Calm Calm - N/A   Clear
4:35 AM 46.8 °F 46.8 °F 100% 30.18 in 0.8 mi Calm Calm - N/A   Mist
4:55 AM 45.1 °F 45.1 °F 100% 30.17 in 10.0 mi Calm Calm - N/A   Clear
5:15 AM 45.7 °F 45.7 °F 100% 30.18 in 0.8 mi Calm Calm - N/A   Mist
5:35 AM 45.0 °F 45.0 °F 100% 30.18 in 0.5 mi Calm Calm - N/A Fog Fog
5:55 AM 45.1 °F 45.1 °F 100% 30.19 in 0.5 mi Calm Calm - N/A Fog Fog
6:15 AM 44.6 °F 44.6 °F 100% 30.20 in 0.5 mi Calm Calm - N/A Fog Fog
6:35 AM 44.4 °F 44.4 °F 100% 30.20 in 0.8 mi Calm Calm - N/A   Mostly Cloudy
6:55 AM 44.6 °F 44.6 °F 100% 30.21 in 0.8 mi Calm Calm - N/A   Mostly Cloudy
7:15 AM 44.6 °F 44.6 °F 100% 30.21 in 0.2 mi Calm Calm - N/A Fog Fog
7:35 AM 45.5 °F 45.5 °F 100% 30.22 in 0.8 mi Calm Calm - N/A   Mostly Cloudy
7:55 AM 48.7 °F 48.7 °F 100% 30.22 in 10.0 mi Calm Calm - N/A   Clear
8:15 AM 51.3 °F 51.3 °F 100% 30.23 in 10.0 mi ESE 4.6 mph - N/A   Clear
8:35 AM 53.8 °F 52.7 °F 96% 30.24 in 10.0 mi East 6.9 mph - N/A   Clear
8:55 AM 56.1 °F 53.2 °F 90% 30.23 in 10.0 mi ENE 9.2 mph - N/A   Clear
9:15 AM 58.8 °F 53.1 °F 81% 30.23 in 10.0 mi East 9.2 mph - N/A   Clear
9:35 AM 61.0 °F 52.3 °F 73% 30.24 in 10.0 mi East 10.4 mph - N/A   Clear
9:55 AM 62.8 °F 51.4 °F 66% 30.23 in 10.0 mi East 12.7 mph - N/A   Clear
10:15 AM 63.5 °F 49.8 °F 61% 30.23 in 10.0 mi East 11.5 mph 17.3 mph N/A   Clear
10:35 AM 64.6 °F 49.1 °F 57% 30.23 in 10.0 mi East 11.5 mph 18.4 mph N/A   Clear
10:55 AM 65.5 °F 48.2 °F 54% 30.23 in 10.0 mi East 13.8 mph 19.6 mph N/A   Clear
11:15 AM 66.2 °F 47.7 °F 51% 30.22 in 10.0 mi East 11.5 mph 19.6 mph N/A   Clear
11:35 AM 67.1 °F 48.2 °F 51% 30.22 in 10.0 mi East 9.2 mph 16.1 mph N/A   Clear
11:55 AM 67.3 °F 47.7 °F 49% 30.22 in 10.0 mi East 11.5 mph - N/A   Clear
12:15 PM 68.2 °F 48.2 °F 49% 30.21 in 10.0 mi ESE 13.8 mph - N/A   Clear
12:35 PM 69.4 °F 46.0 °F 43% 30.20 in 10.0 mi East 12.7 mph 16.1 mph N/A   Clear
12:55 PM 70.3 °F 46.8 °F 43% 30.19 in 10.0 mi East 12.7 mph 17.3 mph N/A   Clear
1:15 PM 70.5 °F 46.4 °F 42% 30.18 in 10.0 mi East 12.7 mph - N/A   Clear
1:35 PM 71.1 °F 45.5 °F 40% 30.17 in 10.0 mi East 9.2 mph 19.6 mph N/A   Clear
1:55 PM 71.2 °F 44.2 °F 38% 30.16 in 10.0 mi East 12.7 mph - N/A   Clear
2:15 PM 72.0 °F 44.8 °F 38% 30.16 in 10.0 mi East 12.7 mph - N/A   Clear
2:55 PM 72.5 °F 43.9 °F 36% 30.15 in 10.0 mi East 10.4 mph - N/A   Clear
6:15 PM 64.9 °F 49.1 °F 56% 30.14 in 10.0 mi East 4.6 mph - N/A   Clear
6:35 PM 61.7 °F 50.0 °F 65% 30.15 in 10.0 mi Calm Calm - N/A   Clear
6:55 PM 59.4 °F 50.0 °F 71% 30.15 in 10.0 mi ENE 3.5 mph - N/A   Clear
7:15 PM 58.3 °F 49.6 °F 73% 30.16 in 10.0 mi ENE 4.6 mph - N/A   Clear
7:35 PM 56.8 °F 49.6 °F 77% 30.16 in 10.0 mi ENE 4.6 mph - N/A   Clear
7:55 PM 56.5 °F 49.3 °F 77% 30.16 in 7.0 mi ENE 4.6 mph - N/A   Clear
8:15 PM 53.8 °F 49.1 °F 84% 30.16 in 10.0 mi Calm Calm - N/A   Clear
8:35 PM 53.4 °F 49.3 °F 86% 30.16 in 10.0 mi ENE 3.5 mph - N/A   Clear
8:55 PM 54.7 °F 48.9 °F 81% 30.17 in 10.0 mi Calm Calm - N/A   Clear
9:15 PM 55.4 °F 49.1 °F 79% 30.17 in 10.0 mi Calm Calm - N/A   Clear
9:35 PM 53.2 °F 49.1 °F 86% 30.16 in 10.0 mi Calm Calm - N/A   Clear
9:55 PM 52.3 °F 49.6 °F 91% 30.17 in 10.0 mi Calm Calm - N/A   Clear
10:15 PM 51.8 °F 50.4 °F 95% 30.16 in 10.0 mi Calm Calm - N/A   Clear
10:35 PM 52.3 °F 50.5 °F 94% 30.16 in 10.0 mi Calm Calm - N/A   Clear
10:55 PM 52.2 °F 49.1 °F 89% 30.16 in 10.0 mi Calm Calm - N/A   Clear
11:15 PM 51.6 °F 49.5 °F 92% 30.15 in 10.0 mi Calm Calm - N/A   Clear
11:35 PM 51.8 °F 48.9 °F 90% 30.15 in 10.0 mi Calm Calm - N/A   Clear
11:55 PM 50.9 °F 49.8 °F 96% 30.15 in 10.0 mi Calm Calm - N/A   Clear